Regional Weather Roundup
Issued by NWS

Home | Current Version | Previous Version | Text Only | Print | Product List | Glossary Off
Versions: 1 2 3 4 5 6 7 8 9 10 11 12 13 14 15 16 17 18 19 20 21 22 23 24 25 26 27 28 29 30 31 32 33 34 35 36 37 38 39 40 41 42 43 44 45 46 47 48 49 50

195
ASUS43 KTOP 300759
RWRKS

WEATHER ROUNDUP FOR KANSAS
NATIONAL WEATHER SERVICE GOODLAND KS
300 AM CDT SAT APR 30 2016

NOTE:  "FAIR" INDICATES FEW OR NO CLOUDS BELOW 12,000 FEET WITH NO
SIGNIFICANT WEATHER AND/OR OBSTRUCTIONS TO VISIBILITY.

KSZ001>006-013>018-027>032-041>047-300900-
NORTHWEST KANSAS

CITY           SKY/WX    TMP DP  RH WIND       PRES   REMARKS
GOODLAND       CLOUDY    32  31  96 NW15      29.81F WCI  22
HAYS           CLOUDY    45  36  70 NW12      29.73F
HILL CITY      CLOUDY    42  40  92 N16       29.76F
RUSSELL        CLOUDY    45  44  97 NW12      29.70F FOG
$$

KSZ061>065-074>080-084>089-300900-
SOUTHWEST KANSAS

CITY           SKY/WX    TMP DP  RH WIND       PRES   REMARKS
DODGE CITY     CLOUDY    39  37  92 NW15      29.77F WCI  31
ELKHART          N/A     38  31  76 NW10        N/A  WCI  31
GARDEN CITY    CLOUDY    37  35  92 NW13      29.79F WCI  29
GREAT BEND     CLOUDY    45  39  81 NW10      29.73S
LIBERAL        CLOUDY    39  34  81 NW17G23   29.80F WCI  30
$$

KSZ066>073-081>083-090>101-300900-
SOUTHEAST KANSAS

CITY           SKY/WX    TMP DP  RH WIND       PRES   REMARKS
CHANUTE        CLOUDY    61  58  90 SE9       29.65S
COFFEYVILLE    CLOUDY    63  60  90 CALM      29.64S
HUTCHINSON     CLOUDY    50  49  96 NW9       29.68F
MEDICINE LODGE   N/A     47  45  93 NW10      29.71F
NEWTON         CLOUDY    52  46  82 N9        29.67F
PARSONS        CLOUDY    63  61  93 CALM      29.66R
WICHITA INTL   CLOUDY    53  51  93 NW14      29.66F FOG
WICHITA JABRA  CLOUDY    52  52 100 NW10      29.65F
WINFIELD       CLOUDY    55  54  96 NW9       29.67R
$$

KSZ007>012-019>026-033>040-048>060-102>105-300900-
NORTHEAST KANSAS

CITY           SKY/WX    TMP DP  RH WIND       PRES   REMARKS
CONCORDIA      LGT RAIN  47  46  97 N9        29.70F FOG
EMPORIA        CLOUDY    58  57  97 SE9       29.62F
LAWRENCE       CLOUDY    54  53  97 E15       29.66F FOG
MANHATTAN      LGT RAIN  52  49  89 N5        29.65F FOG
OLATHE IND     LGT RAIN  57  56  96 E10       29.67F
OLATHE EXE     CLOUDY    56  55  97 E7        29.67F
SALINA         CLOUDY    51  50  96 N12       29.67F
TOPEKA BILLARD LGT RAIN  54  53  97 E14       29.65F FOG
TOPEKA FORBES  LGT RAIN  56  54  93 E14       29.64F FOG
$$




USA.gov is the U.S. government's official web portal to all federal, state and local government web resources and services.